Location: Colonia Mina de C?rbuni
(46.1667°N, 22.7167°E)
Time: 04:54:54
(UTC+00:00)

Transit 4A - Pass Details

Date: 26 April 2024
Orbit: 871 x 971 km, 66.8° (Epoch: 24 May)

Event Time Altitude Azimuth Distance (km) Brightness Sun altitude
Rises 19:42:04 0° 317° (NW) 3,469 12.6 -19.5°
Reaches altitude 10° 19:44:55 10° 305° (NW) 2,530 11.3 -19.8°
Maximum altitude 19:49:37 26° 251° (WSW) 1,667 9.4 -20.3°
Enters shadow 19:53:42 13° 202° (SSW) 2,352 9.7 -20.8°
